| time (UTC) | temp C | wind direction | speed KPH | gust KPH | rain 1hr cm | rain 24hr cm | rain mn cm | humidity % | barometer mb |
| 20260508071545 | 6 | 293 | 1.6 | 6.4 | 0.00 | 0.00 | 0.00 | 63 | 1004.7 |
| 20260508071030 | 6 | 307 | 1.6 | 6.4 | 0.00 | 0.00 | 0.00 | 63 | 1004.7 |
| 20260508070530 | 6 | 303 | 1.6 | 6.4 | 0.00 | 0.00 | 0.00 | 62 | 1004.7 |
| 20260508070051 | 6 | 305 | 1.6 | 6.4 | 0.00 | 0.00 | 0.00 | 62 | 1004.6 |
| 20260508065531 | 6 | 304 | 1.6 | 6.4 | 0.00 | 0.00 | 0.00 | 62 | 1004.6 |
| 20260508065029 | 6 | 311 | 3.2 | 6.4 | 0.00 | 0.00 | 0.00 | 62 | 1004.6 |
| 20260508064558 | 6 | 315 | 1.6 | 4.8 | 0.00 | 0.00 | 0.00 | 62 | 1004.6 |
| 20260508064031 | 6 | 306 | 0.0 | 6.4 | 0.00 | 0.00 | 0.00 | 62 | 1004.8 |
| 20260508063533 | 6 | 292 | 1.6 | 6.4 | 0.00 | 0.00 | 0.00 | 61 | 1004.9 |
| 20260508063047 | 6 | 304 | 1.6 | 6.4 | 0.00 | 0.00 | 0.00 | 61 | 1004.8 |
| 20260508062532 | 7 | 329 | 1.6 | 6.4 | 0.00 | 0.00 | 0.00 | 60 | 1005.0 |
| 20260508062032 | 7 | 309 | 3.2 | 9.7 | 0.00 | 0.00 | 0.00 | 60 | 1004.9 |
| 20260508061552 | 7 | 318 | 4.8 | 11.3 | 0.00 | 0.00 | 0.00 | 59 | 1004.9 |
| 20260508061032 | 7 | 309 | 4.8 | 12.9 | 0.00 | 0.00 | 0.00 | 59 | 1004.9 |
| 20260508060531 | 7 | 318 | 4.8 | 12.9 | 0.00 | 0.00 | 0.00 | 59 | 1004.9 |
| 20260508060049 | 7 | 314 | 6.4 | 9.7 | 0.00 | 0.00 | 0.00 | 59 | 1005.0 |
| 20260508055532 | 7 | 309 | 4.8 | 9.7 | 0.00 | 0.03 | 0.00 | 59 | 1005.1 |
| 20260508055035 | 7 | 320 | 4.8 | 9.7 | 0.00 | 0.03 | 0.00 | 59 | 1005.1 |
| 20260508054605 | 7 | 309 | 3.2 | 8.0 | 0.00 | 0.03 | 0.00 | 59 | 1005.1 |
| 20260508054031 | 7 | 313 | 4.8 | 8.0 | 0.00 | 0.03 | 0.00 | 59 | 1005.2 |
| 20260508053532 | 7 | 315 | 3.2 | 6.4 | 0.00 | 0.03 | 0.00 | 58 | 1005.2 |
| 20260508053044 | 7 | 320 | 4.8 | 8.0 | 0.00 | 0.03 | 0.00 | 57 | 1005.3 |
| 20260508052533 | 7 | 306 | 4.8 | 8.0 | 0.00 | 0.03 | 0.00 | 57 | 1005.3 |
| 20260508052033 | 7 | 306 | 4.8 | 6.4 | 0.00 | 0.03 | 0.00 | 57 | 1005.4 |
| 20260508051545 | 8 | 310 | 4.8 | 6.4 | 0.00 | 0.03 | 0.00 | 56 | 1005.4 |
| 20260508051033 | 8 | 304 | 3.2 | 6.4 | 0.00 | 0.03 | 0.00 | 57 | 1005.5 |
| 20260508050534 | 8 | 315 | 3.2 | 6.4 | 0.00 | 0.03 | 0.00 | 56 | 1005.6 |
| 20260508050053 | 8 | 318 | 3.2 | 6.4 | 0.00 | 0.03 | 0.00 | 56 | 1005.6 |
| 20260508045532 | 8 | 313 | 3.2 | 6.4 | 0.00 | 0.10 | 0.00 | 56 | 1005.6 |
| 20260508045033 | 8 | 327 | 1.6 | 8.0 | 0.00 | 0.10 | 0.00 | 56 | 1005.6 |
| 20260508044545 | 8 | 302 | 3.2 | 8.0 | 0.00 | 0.10 | 0.00 | 56 | 1005.6 |
| 20260508044031 | 8 | 315 | 4.8 | 8.0 | 0.00 | 0.10 | 0.00 | 56 | 1005.6 |
| 20260508043532 | 8 | 307 | 4.8 | 6.4 | 0.00 | 0.10 | 0.00 | 56 | 1005.6 |
| 20260508043048 | 8 | 318 | 4.8 | 6.4 | 0.00 | 0.10 | 0.00 | 55 | 1005.6 |
| 20260508042533 | 8 | 318 | 3.2 | 6.4 | 0.00 | 0.10 | 0.00 | 54 | 1005.7 |
| 20260508042031 | 8 | 313 | 1.6 | 6.4 | 0.00 | 0.10 | 0.00 | 54 | 1005.7 |
| 20260508041547 | 9 | 311 | 3.2 | 6.4 | 0.00 | 0.10 | 0.00 | 53 | 1005.8 |
| 20260508041033 | 9 | 313 | 3.2 | 6.4 | 0.00 | 0.10 | 0.00 | 52 | 1005.8 |
| 20260508040533 | 9 | 315 | 3.2 | 8.0 | 0.00 | 0.10 | 0.00 | 52 | 1005.7 |
| 20260508040054 | 9 | 317 | 3.2 | 8.0 | 0.00 | 0.10 | 0.00 | 51 | 1005.7 |
| 20260508035534 | 9 | 319 | 4.8 | 9.7 | 0.00 | 0.18 | 0.10 | 50 | 1005.7 |
| 20260508035032 | 10 | 319 | 4.8 | 9.7 | 0.00 | 0.18 | 0.10 | 49 | 1005.6 |
| 20260508034548 | 10 | 314 | 4.8 | 9.7 | 0.00 | 0.18 | 0.10 | 49 | 1005.7 |
| 20260508034034 | 10 | 323 | 4.8 | 9.7 | 0.00 | 0.18 | 0.10 | 48 | 1005.8 |
| 20260508033532 | 10 | 323 | 3.2 | 9.7 | 0.00 | 0.18 | 0.10 | 48 | 1005.8 |
| 20260508033041 | 10 | 351 | 3.2 | 12.9 | 0.00 | 0.18 | 0.10 | 47 | 1005.8 |
| 20260508032530 | 10 | 334 | 3.2 | 12.9 | 0.00 | 0.18 | 0.10 | 47 | 1005.8 |
| 20260508032029 | 10 | 321 | 6.4 | 9.7 | 0.00 | 0.18 | 0.10 | 46 | 1005.7 |
| 20260508031550 | 10 | 344 | 4.8 | 9.7 | 0.00 | 0.18 | 0.10 | 46 | 1005.7 |
| 20260508031030 | 10 | 317 | 3.2 | 9.7 | 0.00 | 0.18 | 0.10 | 46 | 1005.8 |
| 20260508030531 | 10 | 335 | 6.4 | 11.3 | 0.00 | 0.18 | 0.10 | 46 | 1005.8 |
| 20260508030046 | 10 | 335 | 4.8 | 11.3 | 0.00 | 0.18 | 0.10 | 46 | 1005.8 |
| 20260508025530 | 10 | 328 | 4.8 | 14.5 | 0.00 | 0.18 | 0.10 | 46 | 1005.9 |
| 20260508025033 | 10 | 5 | 6.4 | 14.5 | 0.00 | 0.18 | 0.10 | 45 | 1005.9 |
| 20260508024548 | 10 | 323 | 6.4 | 14.5 | 0.00 | 0.18 | 0.10 | 45 | 1005.8 |
| 20260508024031 | 10 | 321 | 3.2 | 8.0 | 0.00 | 0.18 | 0.10 | 46 | 1005.8 |
| 20260508023531 | 11 | 340 | 3.2 | 9.7 | 0.00 | 0.18 | 0.10 | 46 | 1005.8 |
| 20260508023046 | 11 | 352 | 3.2 | 16.1 | 0.00 | 0.18 | 0.10 | 46 | 1005.7 |
| 20260508022530 | 11 | 17 | 4.8 | 16.1 | 0.00 | 0.18 | 0.10 | 45 | 1005.6 |
| 20260508022030 | 11 | 27 | 6.4 | 16.1 | 0.00 | 0.18 | 0.10 | 45 | 1005.4 |
| 20260508021545 | 11 | 331 | 6.4 | 14.5 | 0.00 | 0.18 | 0.10 | 45 | 1005.5 |
| 20260508021033 | 11 | 318 | 4.8 | 17.7 | 0.00 | 0.18 | 0.10 | 45 | 1005.4 |
| 20260508020530 | 11 | 333 | 4.8 | 17.7 | 0.00 | 0.18 | 0.10 | 45 | 1005.5 |
| 20260508020040 | 11 | 5 | 6.4 | 12.9 | 0.00 | 0.18 | 0.10 | 44 | 1005.4 |
| 20260508015530 | 11 | 32 | 4.8 | 12.9 | 0.00 | 0.20 | 0.10 | 44 | 1005.3 |
| 20260508015030 | 12 | 26 | 4.8 | 12.9 | 0.00 | 0.20 | 0.10 | 43 | 1005.2 |
| 20260508014547 | 12 | 348 | 4.8 | 14.5 | 0.00 | 0.20 | 0.10 | 42 | 1005.2 |
| 20260508014031 | 12 | 5 | 6.4 | 14.5 | 0.00 | 0.20 | 0.10 | 41 | 1005.1 |
| 20260508013530 | 12 | 346 | 6.4 | 14.5 | 0.00 | 0.20 | 0.10 | 40 | 1004.9 |
| 20260508013046 | 12 | 24 | 6.4 | 20.9 | 0.00 | 0.20 | 0.10 | 40 | 1004.9 |
| 20260508012530 | 12 | 344 | 8.0 | 20.9 | 0.00 | 0.20 | 0.10 | 39 | 1004.7 |
| 20260508012030 | 12 | 355 | 6.4 | 17.7 | 0.00 | 0.20 | 0.10 | 39 | 1004.7 |
| 20260508011550 | 12 | 308 | 8.0 | 17.7 | 0.00 | 0.20 | 0.10 | 39 | 1004.6 |
| 20260508011030 | 12 | 338 | 4.8 | 17.7 | 0.00 | 0.20 | 0.10 | 40 | 1004.7 |
| 20260508010530 | 13 | 328 | 6.4 | 17.7 | 0.00 | 0.20 | 0.10 | 38 | 1004.6 |
| 20260508010051 | 13 | 311 | 3.2 | 8.0 | 0.00 | 0.20 | 0.10 | 40 | 1004.5 |
| 20260508005530 | 13 | 317 | 4.8 | 8.0 | 0.00 | 0.23 | 0.10 | 39 | 1004.5 |
| 20260508005032 | 13 | 355 | 3.2 | 9.7 | 0.00 | 0.23 | 0.10 | 39 | 1004.4 |
| 20260508004550 | 13 | 344 | 4.8 | 9.7 | 0.00 | 0.23 | 0.10 | 39 | 1004.3 |
| 20260508004030 | 13 | 327 | 3.2 | 9.7 | 0.00 | 0.23 | 0.10 | 38 | 1004.2 |
| 20260508003530 | 13 | 331 | 4.8 | 9.7 | 0.00 | 0.23 | 0.10 | 37 | 1004.0 |
| 20260508003046 | 13 | 340 | 4.8 | 16.1 | 0.00 | 0.23 | 0.10 | 37 | 1003.9 |
| 20260508002530 | 13 | 317 | 6.4 | 17.7 | 0.00 | 0.23 | 0.10 | 37 | 1003.8 |
| 20260508002030 | 13 | 306 | 6.4 | 17.7 | 0.00 | 0.23 | 0.10 | 37 | 1003.7 |
| 20260508001546 | 13 | 333 | 6.4 | 12.9 | 0.00 | 0.23 | 0.10 | 37 | 1003.6 |
| 20260508001031 | 13 | 324 | 6.4 | 12.9 | 0.00 | 0.23 | 0.10 | 39 | 1003.6 |
| 20260508000533 | 13 | 324 | 6.4 | 12.9 | 0.00 | 0.23 | 0.10 | 39 | 1003.6 |
| 20260507235530 | 14 | 294 | 4.8 | 12.9 | 0.00 | 0.23 | 0.10 | 39 | 1003.3 |
| 20260507235031 | 14 | 307 | 1.6 | 6.4 | 0.00 | 0.23 | 0.10 | 39 | 1003.4 |
| 20260507234546 | 14 | 304 | 1.6 | 12.9 | 0.00 | 0.23 | 0.10 | 38 | 1003.4 |
| 20260507234030 | 14 | 320 | 4.8 | 12.9 | 0.00 | 0.23 | 0.10 | 39 | 1003.4 |
| 20260507233531 | 14 | 315 | 4.8 | 9.7 | 0.00 | 0.23 | 0.10 | 37 | 1003.3 |
| 20260507233040 | 15 | 265 | 3.2 | 12.9 | 0.00 | 0.23 | 0.10 | 37 | 1003.4 |
| 20260507232530 | 15 | 291 | 6.4 | 12.9 | 0.00 | 0.23 | 0.10 | 37 | 1003.3 |
| 20260507232032 | 15 | 299 | 6.4 | 17.7 | 0.00 | 0.23 | 0.10 | 37 | 1003.3 |
| 20260507231545 | 15 | 355 | 4.8 | 17.7 | 0.00 | 0.23 | 0.10 | 37 | 1003.2 |
| 20260507231030 | 15 | 314 | 9.7 | 17.7 | 0.00 | 0.23 | 0.10 | 36 | 1003.2 |
| 20260507230533 | 15 | 331 | 3.2 | 12.9 | 0.00 | 0.23 | 0.10 | 37 | 1003.1 |
| 20260507230046 | 15 | 309 | 6.4 | 14.5 | 0.00 | 0.23 | 0.10 | 36 | 1003.0 |
| 20260507225530 | 15 | 315 | 6.4 | 19.3 | 0.00 | 0.30 | 0.10 | 36 | 1002.9 |
| 20260507225030 | 15 | 344 | 4.8 | 19.3 | 0.00 | 0.30 | 0.10 | 36 | 1002.8 |
| 20260507224545 | 15 | 302 | 11.3 | 20.9 | 0.00 | 0.30 | 0.10 | 36 | 1002.7 |
| 20260507224035 | 15 | 298 | 9.7 | 20.9 | 0.00 | 0.30 | 0.10 | 36 | 1002.6 |
| 20260507223533 | 15 | 314 | 11.3 | 20.9 | 0.00 | 0.30 | 0.10 | 35 | 1002.7 |
| 20260507223044 | 16 | 311 | 6.4 | 19.3 | 0.00 | 0.30 | 0.10 | 36 | 1002.7 |
| 20260507222530 | 16 | 315 | 6.4 | 19.3 | 0.00 | 0.30 | 0.10 | 37 | 1002.5 |
| 20260507222030 | 16 | 318 | 8.0 | 19.3 | 0.00 | 0.30 | 0.10 | 34 | 1002.5 |
| 20260507221540 | 16 | 340 | 6.4 | 17.7 | 0.00 | 0.30 | 0.10 | 36 | 1002.3 |
| 20260507221033 | 16 | 321 | 4.8 | 17.7 | 0.00 | 0.30 | 0.10 | 36 | 1002.3 |
| 20260507220532 | 16 | 307 | 4.8 | 19.3 | 0.00 | 0.30 | 0.10 | 35 | 1002.3 |
| 20260507220040 | 16 | 315 | 11.3 | 20.9 | 0.00 | 0.30 | 0.10 | 34 | 1002.3 |
| 20260507215534 | 16 | 294 | 9.7 | 20.9 | 0.00 | 0.56 | 0.10 | 34 | 1002.3 |
| 20260507215030 | 16 | 302 | 11.3 | 19.3 | 0.00 | 0.56 | 0.10 | 34 | 1002.2 |
| 20260507214548 | 16 | 315 | 11.3 | 17.7 | 0.00 | 0.56 | 0.10 | 35 | 1002.2 |
| 20260507214030 | 16 | 311 | 6.4 | 17.7 | 0.00 | 0.56 | 0.10 | 35 | 1002.3 |
| 20260507213533 | 15 | 306 | 9.7 | 17.7 | 0.00 | 0.56 | 0.10 | 35 | 1002.3 |
| 20260507213045 | 15 | 272 | 8.0 | 29.0 | 0.00 | 0.56 | 0.10 | 36 | 1002.3 |
| 20260507212530 | 16 | 318 | 14.5 | 29.0 | 0.00 | 0.56 | 0.10 | 34 | 1002.3 |
| 20260507212033 | 16 | 325 | 16.1 | 29.0 | 0.00 | 0.56 | 0.10 | 35 | 1002.3 |
| 20260507211551 | 16 | 292 | 12.9 | 20.9 | 0.00 | 0.56 | 0.10 | 34 | 1002.2 |
| 20260507211030 | 16 | 247 | 4.8 | 20.9 | 0.00 | 0.56 | 0.10 | 35 | 1002.1 |
| 20260507210530 | 16 | 311 | 9.7 | 20.9 | 0.00 | 0.56 | 0.10 | 35 | 1002.2 |
| 20260507210046 | 16 | 311 | 9.7 | 17.7 | 0.00 | 0.56 | 0.10 | 35 | 1002.2 |
| 20260507205530 | 17 | 306 | 8.0 | 20.9 | 0.00 | 0.61 | 0.10 | 36 | 1002.1 |
| 20260507205030 | 16 | 262 | 6.4 | 20.9 | 0.00 | 0.61 | 0.10 | 36 | 1002.0 |
| 20260507204543 | 16 | 273 | 12.9 | 20.9 | 0.00 | 0.61 | 0.10 | 35 | 1002.1 |
| 20260507204031 | 16 | 296 | 11.3 | 24.1 | 0.00 | 0.61 | 0.10 | 35 | 1002.0 |
| 20260507203531 | 16 | 340 | 11.3 | 24.1 | 0.00 | 0.61 | 0.10 | 34 | 1002.1 |
| 20260507203046 | 16 | 334 | 9.7 | 25.7 | 0.00 | 0.61 | 0.10 | 35 | 1002.0 |
| 20260507202530 | 16 | 329 | 9.7 | 25.7 | 0.00 | 0.61 | 0.10 | 34 | 1002.1 |
| 20260507202030 | 16 | 249 | 11.3 | 25.7 | 0.00 | 0.61 | 0.10 | 34 | 1002.1 |
| 20260507201545 | 16 | 308 | 11.3 | 20.9 | 0.00 | 0.61 | 0.10 | 34 | 1002.0 |
| 20260507201030 | 16 | 271 | 9.7 | 19.3 | 0.00 | 0.61 | 0.10 | 33 | 1002.0 |
| 20260507200530 | 16 | 315 | 9.7 | 22.5 | 0.00 | 0.61 | 0.10 | 35 | 1002.1 |
| 20260507200043 | 16 | 294 | 8.0 | 22.5 | 0.00 | 0.61 | 0.10 | 34 | 1002.1 |
| 20260507195530 | 16 | 284 | 14.5 | 25.7 | 0.00 | 0.71 | 0.10 | 33 | 1002.1 |
| 20260507195030 | 16 | 284 | 12.9 | 27.4 | 0.00 | 0.71 | 0.10 | 35 | 1002.2 |
| 20260507194545 | 16 | 302 | 14.5 | 27.4 | 0.00 | 0.71 | 0.10 | 33 | 1002.2 |
| 20260507194031 | 16 | 298 | 14.5 | 25.7 | 0.00 | 0.71 | 0.10 | 36 | 1002.2 |
| 20260507193531 | 16 | 320 | 11.3 | 25.7 | 0.00 | 0.71 | 0.10 | 36 | 1002.2 |
| 20260507193048 | 16 | 273 | 14.5 | 29.0 | 0.00 | 0.71 | 0.10 | 36 | 1002.3 |
| 20260507192530 | 16 | 340 | 17.7 | 29.0 | 0.00 | 0.71 | 0.10 | 36 | 1002.3 |
| 20260507192032 | 16 | 317 | 12.9 | 25.7 | 0.00 | 0.71 | 0.10 | 35 | 1002.3 |
| 20260507191548 | 16 | 309 | 12.9 | 25.7 | 0.00 | 0.71 | 0.10 | 34 | 1002.4 |
| 20260507191034 | 17 | 275 | 8.0 | 19.3 | 0.00 | 0.71 | 0.10 | 35 | 1002.3 |
| 20260507190530 | 17 | 315 | 6.4 | 20.9 | 0.00 | 0.71 | 0.10 | 37 | 1002.4 |
| 20260507190047 | 16 | 252 | 8.0 | 20.9 | 0.00 | 0.71 | 0.10 | 36 | 1002.4 |
| 20260507185530 | 16 | 293 | 11.3 | 25.7 | 0.00 | 0.71 | 0.10 | 35 | 1002.4 |
| 20260507185030 | 16 | 324 | 6.4 | 32.2 | 0.00 | 0.71 | 0.10 | 38 | 1002.4 |
| 20260507184543 | 16 | 331 | 14.5 | 32.2 | 0.00 | 0.71 | 0.10 | 39 | 1002.5 |
| 20260507184034 | 16 | 311 | 16.1 | 32.2 | 0.00 | 0.71 | 0.10 | 42 | 1002.5 |
| 20260507183534 | 16 | 316 | 11.3 | 22.5 | 0.00 | 0.71 | 0.10 | 46 | 1002.6 |
| 20260507183039 | 16 | 283 | 11.3 | 22.5 | 0.00 | 0.71 | 0.10 | 46 | 1002.6 |
| 20260507182531 | 16 | 288 | 9.7 | 19.3 | 0.00 | 0.71 | 0.10 | 46 | 1002.6 |
| 20260507182030 | 17 | 294 | 6.4 | 19.3 | 0.00 | 0.71 | 0.10 | 46 | 1002.7 |
| 20260507181547 | 16 | 262 | 6.4 | 17.7 | 0.00 | 0.71 | 0.10 | 43 | 1002.7 |
| 20260507181031 | 16 | 242 | 9.7 | 20.9 | 0.00 | 0.71 | 0.10 | 44 | 1002.7 |
| 20260507180531 | 16 | 321 | 8.0 | 22.5 | 0.00 | 0.71 | 0.10 | 47 | 1002.7 |
| 20260507180050 | 16 | 257 | 4.8 | 22.5 | 0.00 | 0.71 | 0.10 | 47 | 1002.8 |
| 20260507175530 | 16 | 303 | 4.8 | 19.3 | 0.00 | 0.71 | 0.10 | 45 | 1002.6 |
| 20260507175030 | 16 | 231 | 9.7 | 19.3 | 0.00 | 0.71 | 0.10 | 46 | 1002.9 |
| 20260507174611 | 16 | 299 | 8.0 | 20.9 | 0.00 | 0.71 | 0.10 | 48 | 1002.8 |
| 20260507174030 | 16 | 299 | 8.0 | 24.1 | 0.00 | 0.71 | 0.10 | 49 | 1002.8 |
| 20260507173529 | 15 | 327 | 12.9 | 25.7 | 0.00 | 0.71 | 0.10 | 49 | 1002.8 |
| 20260507173044 | 15 | 313 | 14.5 | 25.7 | 0.00 | 0.71 | 0.10 | 50 | 1002.9 |
| 20260507172531 | 15 | 309 | 12.9 | 22.5 | 0.00 | 0.71 | 0.10 | 50 | 1002.9 |
| 20260507172031 | 15 | 316 | 8.0 | 22.5 | 0.00 | 0.71 | 0.10 | 50 | 1002.9 |
| 20260507171558 | 15 | 311 | 11.3 | 24.1 | 0.00 | 0.71 | 0.10 | 52 | 1002.9 |
| 20260507171031 | 15 | 304 | 9.7 | 24.1 | 0.00 | 0.71 | 0.10 | 53 | 1003.0 |
| 20260507170531 | 15 | 320 | 11.3 | 19.3 | 0.00 | 0.71 | 0.10 | 53 | 1003.2 |
| 20260507170048 | 15 | 297 | 9.7 | 17.7 | 0.00 | 0.71 | 0.10 | 55 | 1003.0 |
| 20260507165533 | 15 | 296 | 9.7 | 17.7 | 0.00 | 0.71 | 0.10 | 52 | 1003.1 |
| 20260507165030 | 16 | 355 | 3.2 | 12.9 | 0.00 | 0.71 | 0.10 | 55 | 1003.1 |
| 20260507164552 | 16 | 0 | 3.2 | 14.5 | 0.00 | 0.71 | 0.10 | 62 | 1003.2 |
| 20260507164031 | 15 | 138 | 3.2 | 14.5 | 0.00 | 0.71 | 0.10 | 63 | 1003.2 |
| 20260507163531 | 14 | 163 | 3.2 | 12.9 | 0.00 | 0.71 | 0.10 | 67 | 1003.3 |
| 20260507163047 | 13 | 174 | 4.8 | 16.1 | 0.00 | 0.71 | 0.10 | 66 | 1003.4 |
| 20260507162530 | 13 | 181 | 4.8 | 16.1 | 0.00 | 0.71 | 0.10 | 65 | 1003.4 |
| 20260507162031 | 14 | 169 | 4.8 | 16.1 | 0.00 | 0.71 | 0.10 | 65 | 1003.5 |
| 20260507161553 | 14 | 196 | 6.4 | 16.1 | 0.00 | 0.71 | 0.10 | 65 | 1003.4 |
| 20260507161031 | 14 | 235 | 6.4 | 16.1 | 0.00 | 0.71 | 0.10 | 66 | 1003.5 |
| 20260507160531 | 13 | 215 | 4.8 | 19.3 | 0.00 | 0.71 | 0.10 | 67 | 1003.5 |
| 20260507160107 | 13 | 202 | 4.8 | 19.3 | 0.00 | 0.71 | 0.10 | 67 | 1003.6 |
| 20260507155531 | 14 | 195 | 4.8 | 16.1 | 0.00 | 0.71 | 0.10 | 67 | 1003.8 |
| 20260507155031 | 14 | 207 | 4.8 | 16.1 | 0.00 | 0.71 | 0.10 | 67 | 1003.7 |
| 20260507154542 | 14 | 244 | 3.2 | 12.9 | 0.00 | 0.71 | 0.10 | 67 | 1003.8 |
| 20260507154031 | 14 | 217 | 3.2 | 9.7 | 0.00 | 0.71 | 0.10 | 67 | 1003.7 |
| 20260507153530 | 15 | 272 | 1.6 | 9.7 | 0.00 | 0.71 | 0.10 | 67 | 1003.8 |
| 20260507153046 | 15 | 0 | 3.2 | 9.7 | 0.00 | 0.71 | 0.10 | 65 | 1003.9 |
| 20260507152530 | 15 | 192 | 1.6 | 9.7 | 0.00 | 0.71 | 0.10 | 64 | 1004.0 |
| 20260507152031 | 14 | 203 | 3.2 | 9.7 | 0.00 | 0.71 | 0.10 | 61 | 1004.0 |
| 20260507151546 | 14 | 198 | 1.6 | 9.7 | 0.00 | 0.71 | 0.10 | 60 | 1004.0 |
| 20260507151030 | 14 | 186 | 3.2 | 9.7 | 0.00 | 0.71 | 0.10 | 60 | 1004.0 |
| 20260507150533 | 14 | 277 | 3.2 | 9.7 | 0.00 | 0.71 | 0.10 | 63 | 1004.0 |
| 20260507150043 | 14 | 138 | 1.6 | 6.4 | 0.00 | 0.71 | 0.10 | 62 | 1003.9 |
| 20260507145528 | 13 | 317 | 1.6 | 6.4 | 0.00 | 0.71 | 0.10 | 65 | 1004.0 |
| 20260507145031 | 13 | 65 | 0.0 | 11.3 | 0.00 | 0.71 | 0.10 | 64 | 1003.9 |
| 20260507144540 | 13 | 211 | 3.2 | 11.3 | 0.00 | 0.71 | 0.10 | 64 | 1004.1 |
| 20260507144028 | 13 | 0 | 0.0 | 9.7 | 0.00 | 0.71 | 0.10 | 65 | 1004.0 |
| 20260507143530 | 13 | 323 | 0.0 | 12.9 | 0.00 | 0.71 | 0.10 | 64 | 1004.0 |
| 20260507143045 | 13 | 317 | 1.6 | 12.9 | 0.00 | 0.71 | 0.10 | 65 | 1004.1 |
| 20260507142531 | 13 | 10 | 1.6 | 11.3 | 0.00 | 0.71 | 0.10 | 66 | 1004.1 |
| 20260507142033 | 13 | 260 | 4.8 | 11.3 | 0.00 | 0.71 | 0.10 | 66 | 1004.3 |
| 20260507141547 | 13 | 0 | 1.6 | 6.4 | 0.00 | 0.71 | 0.10 | 67 | 1004.3 |
| 20260507141030 | 13 | 0 | 0.0 | 6.4 | 0.00 | 0.71 | 0.10 | 70 | 1004.3 |
| 20260507140527 | 13 | 325 | 1.6 | 8.0 | 0.00 | 0.71 | 0.10 | 70 | 1004.5 |
| 20260507140053 | 13 | 0 | 0.0 | 9.7 | 0.00 | 0.71 | 0.10 | 70 | 1004.6 |
| 20260507135528 | 13 | 306 | 4.8 | 11.3 | 0.00 | 0.71 | 0.10 | 71 | 1004.5 |
| 20260507135030 | 13 | 329 | 3.2 | 11.3 | 0.00 | 0.71 | 0.10 | 72 | 1004.5 |
| 20260507134539 | 13 | 333 | 0.0 | 8.0 | 0.00 | 0.71 | 0.10 | 73 | 1004.6 |
| 20260507134027 | 12 | 311 | 1.6 | 11.3 | 0.00 | 0.71 | 0.10 | 72 | 1004.6 |
| 20260507133531 | 12 | 0 | 3.2 | 11.3 | 0.00 | 0.71 | 0.10 | 73 | 1004.6 |
| 20260507133051 | 12 | 341 | 4.8 | 12.9 | 0.00 | 0.71 | 0.10 | 74 | 1004.6 |
| 20260507132531 | 12 | 327 | 4.8 | 12.9 | 0.00 | 0.71 | 0.10 | 75 | 1004.7 |
| 20260507132030 | 12 | 336 | 3.2 | 9.7 | 0.00 | 0.71 | 0.10 | 75 | 1004.8 |
| 20260507131612 | 11 | 355 | 3.2 | 14.5 | 0.00 | 0.71 | 0.10 | 75 | 1004.8 |
| 20260507131031 | 11 | 323 | 8.0 | 14.5 | 0.00 | 0.71 | 0.10 | 75 | 1004.8 |
| 20260507130530 | 11 | 341 | 4.8 | 16.1 | 0.00 | 0.71 | 0.10 | 76 | 1004.8 |
| 20260507130047 | 11 | 350 | 8.0 | 16.1 | 0.00 | 0.71 | 0.10 | 75 | 1004.9 |
| 20260507125530 | 11 | 333 | 3.2 | 9.7 | 0.00 | 0.71 | 0.10 | 76 | 1004.9 |
| 20260507125030 | 11 | 321 | 4.8 | 12.9 | 0.00 | 0.71 | 0.10 | 76 | 1005.0 |
| 20260507124552 | 11 | 355 | 4.8 | 12.9 | 0.00 | 0.71 | 0.10 | 75 | 1005.0 |
| 20260507124030 | 11 | 329 | 4.8 | 12.9 | 0.00 | 0.71 | 0.10 | 75 | 1005.1 |
| 20260507123530 | 11 | 328 | 3.2 | 12.9 | 0.00 | 0.71 | 0.10 | 77 | 1005.0 |
| 20260507123045 | 10 | 319 | 8.0 | 12.9 | 0.00 | 0.71 | 0.10 | 75 | 1005.1 |
| 20260507122527 | 10 | 302 | 4.8 | 8.0 | 0.00 | 0.71 | 0.10 | 76 | 1005.1 |
| 20260507122027 | 10 | 302 | 4.8 | 8.0 | 0.00 | 0.71 | 0.10 | 76 | 1005.1 |
| 20260507121541 | 10 | 323 | 4.8 | 11.3 | 0.00 | 0.71 | 0.10 | 77 | 1005.0 |
| 20260507121031 | 10 | 316 | 4.8 | 11.3 | 0.00 | 0.71 | 0.10 | 77 | 1004.9 |
| 20260507120530 | 10 | 321 | 4.8 | 16.1 | 0.00 | 0.71 | 0.10 | 79 | 1005.0 |
| 20260507120046 | 10 | 328 | 4.8 | 16.1 | 0.00 | 0.71 | 0.10 | 81 | 1005.0 |
| 20260507115530 | 9 | 318 | 4.8 | 9.7 | 0.00 | 0.71 | 0.10 | 84 | 1005.1 |
| 20260507115030 | 9 | 329 | 3.2 | 8.0 | 0.00 | 0.71 | 0.10 | 85 | 1005.2 |
| 20260507114543 | 9 | 302 | 3.2 | 8.0 | 0.00 | 0.71 | 0.10 | 86 | 1004.9 |
| 20260507114028 | 8 | 317 | 3.2 | 6.4 | 0.00 | 0.71 | 0.10 | 86 | 1004.9 |
| 20260507113531 | 8 | 294 | 1.6 | 6.4 | 0.00 | 0.71 | 0.10 | 86 | 1004.9 |
| 20260507113114 | 8 | 319 | 3.2 | 8.0 | 0.00 | 0.71 | 0.10 | 86 | 1005.0 |
| 20260507112533 | 8 | 325 | 3.2 | 8.0 | 0.00 | 0.71 | 0.10 | 86 | 1005.0 |
| 20260507112030 | 8 | 345 | 3.2 | 6.4 | 0.00 | 0.71 | 0.10 | 85 | 1005.0 |
| 20260507111539 | 8 | 300 | 3.2 | 8.0 | 0.00 | 0.71 | 0.10 | 85 | 1005.1 |
| 20260507111030 | 8 | 325 | 4.8 | 8.0 | 0.00 | 0.71 | 0.10 | 85 | 1005.1 |
| 20260507110530 | 8 | 338 | 3.2 | 6.4 | 0.00 | 0.71 | 0.10 | 85 | 1004.9 |
| 20260507110047 | 8 | 319 | 3.2 | 6.4 | 0.00 | 0.71 | 0.10 | 85 | 1005.1 |
| 20260507105531 | 8 | 317 | 3.2 | 6.4 | 0.00 | 0.71 | 0.10 | 85 | 1005.3 |
| 20260507105030 | 8 | 337 | 1.6 | 6.4 | 0.00 | 0.71 | 0.10 | 85 | 1005.0 |
| 20260507104558 | 8 | 317 | 3.2 | 6.4 | 0.00 | 0.71 | 0.10 | 85 | 1004.9 |
| 20260507104030 | 8 | 323 | 3.2 | 4.8 | 0.00 | 0.71 | 0.10 | 85 | 1005.1 |
| 20260507103531 | 8 | 302 | 1.6 | 6.4 | 0.00 | 0.71 | 0.10 | 85 | 1005.5 |
| 20260507103043 | 8 | 319 | 3.2 | 6.4 | 0.00 | 0.71 | 0.10 | 85 | 1005.5 |
| 20260507102535 | 8 | 319 | 3.2 | 8.0 | 0.00 | 0.71 | 0.10 | 85 | 1005.2 |
| 20260507102031 | 8 | 321 | 4.8 | 8.0 | 0.00 | 0.71 | 0.10 | 86 | 1005.0 |
| 20260507101554 | 8 | 311 | 3.2 | 8.0 | 0.00 | 0.71 | 0.10 | 86 | 1005.3 |
| 20260507101031 | 8 | 327 | 4.8 | 8.0 | 0.00 | 0.71 | 0.10 | 86 | 1004.9 |
| 20260507100530 | 8 | 329 | 3.2 | 6.4 | 0.00 | 0.71 | 0.10 | 86 | 1005.1 |
| 20260507100054 | 8 | 309 | 3.2 | 6.4 | 0.00 | 0.71 | 0.10 | 86 | 1005.2 |
| 20260507095534 | 8 | 315 | 3.2 | 8.0 | 0.00 | 0.71 | 0.10 | 86 | 1005.0 |
| 20260507095035 | 8 | 312 | 4.8 | 8.0 | 0.00 | 0.71 | 0.10 | 85 | 1005.1 |
| 20260507094541 | 8 | 327 | 4.8 | 9.7 | 0.00 | 0.71 | 0.10 | 86 | 1004.9 |
| 20260507094030 | 8 | 322 | 4.8 | 9.7 | 0.00 | 0.71 | 0.10 | 86 | 1004.3 |
| 20260507093530 | 8 | 306 | 3.2 | 8.0 | 0.00 | 0.71 | 0.10 | 86 | 1004.3 |
| 20260507093047 | 8 | 321 | 4.8 | 8.0 | 0.00 | 0.71 | 0.10 | 86 | 1004.7 |
| 20260507092530 | 8 | 308 | 3.2 | 9.7 | 0.00 | 0.71 | 0.10 | 87 | 1004.9 |
| 20260507092031 | 8 | 298 | 3.2 | 9.7 | 0.00 | 0.71 | 0.10 | 87 | 1004.2 |
| 20260507091548 | 8 | 333 | 6.4 | 9.7 | 0.00 | 0.71 | 0.10 | 87 | 1004.0 |
| 20260507091030 | 8 | 327 | 4.8 | 12.9 | 0.00 | 0.71 | 0.10 | 87 | 1004.0 |
| 20260507090530 | 8 | 336 | 4.8 | 12.9 | 0.00 | 0.71 | 0.10 | 87 | 1004.5 |
| 20260507090045 | 9 | 331 | 4.8 | 12.9 | 0.00 | 0.71 | 0.10 | 87 | 1004.4 |
| 20260507085531 | 9 | 336 | 3.2 | 8.0 | 0.00 | 0.71 | 0.10 | 87 | 1004.3 |
| 20260507085031 | 9 | 329 | 4.8 | 14.5 | 0.00 | 0.71 | 0.10 | 86 | 1004.4 |
| 20260507084556 | 9 | 352 | 6.4 | 14.5 | 0.00 | 0.71 | 0.10 | 86 | 1004.2 |
| 20260507084030 | 9 | 355 | 6.4 | 14.5 | 0.00 | 0.71 | 0.10 | 86 | 1004.6 |
| 20260507083530 | 9 | 303 | 8.0 | 19.3 | 0.00 | 0.71 | 0.10 | 85 | 1004.8 |
| 20260507083047 | 9 | 317 | 6.4 | 19.3 | 0.00 | 0.71 | 0.10 | 86 | 1004.7 |
| 20260507082533 | 10 | 304 | 8.0 | 14.5 | 0.00 | 0.71 | 0.10 | 87 | 1004.5 |
| 20260507082032 | 10 | 312 | 6.4 | 17.7 | 0.00 | 0.71 | 0.10 | 87 | 1004.4 |
| 20260507081546 | 10 | 302 | 6.4 | 17.7 | 0.00 | 0.71 | 0.10 | 88 | 1004.2 |
| 20260507081032 | 10 | 355 | 8.0 | 17.7 | 0.00 | 0.71 | 0.10 | 89 | 1004.0 |
| 20260507080532 | 9 | 5 | 8.0 | 17.7 | 0.00 | 0.71 | 0.10 | 91 | 1003.8 |
| 20260507080052 | 10 | 325 | 4.8 | 12.9 | 0.00 | 0.71 | 0.10 | 92 | 1003.9 |
| 20260507075535 | 9 | 341 | 4.8 | 9.7 | 0.00 | 0.71 | 0.10 | 92 | 1004.0 |
| 20260507075032 | 10 | 341 | 1.6 | 6.4 | 0.00 | 0.71 | 0.10 | 93 | 1004.2 |
| 20260507074545 | 10 | 311 | 1.6 | 6.4 | 0.00 | 0.71 | 0.10 | 93 | 1004.3 |
| 20260507074031 | 10 | 308 | 3.2 | 6.4 | 0.00 | 0.71 | 0.10 | 93 | 1004.3 |
| 20260507073532 | 10 | 327 | 3.2 | 8.0 | 0.00 | 0.71 | 0.10 | 93 | 1004.0 |
| 20260507073045 | 10 | 320 | 4.8 | 8.0 | 0.00 | 0.71 | 0.10 | 93 | 1004.1 |
| 20260507072533 | 10 | 344 | 4.8 | 8.0 | 0.00 | 0.71 | 0.10 | 93 | 1004.0 |
| 20260507072032 | 10 | 340 | 3.2 | 8.0 | 0.00 | 0.71 | 0.10 | 94 | 1003.9 |